Change the Weather History Date:

Wednesday, August 28, 2013

  Actual Average Record
Temperature  
Mean Temperature 63 °F -  
Max Temperature 75 °F 75 °F 75 °F (2004)
Min Temperature 51 °F 55 °F 41 °F (1997)
Degree Days  
Heating Degree Days 2    
Growing Degree Days 13 (Base 50)    
Moisture  
Dew Point 55 °F    
Average Humidity 74    
Maximum Humidity 100    
Minimum Humidity 34    
Precipitation  
Precipitation 0.00 in 0.04 in - ()
Sea Level Pressure  
Sea Level Pressure 30.11 in    
Wind  
Wind Speed 6 mph ()    
Max Wind Speed 18 mph    
Max Gust Speed -    
Visibility 8.9 miles    
Events Fog    
Averages and records for this station are not official NWS values.
T = Trace of Precipitation, MM = Missing Value Source: Averaged Metar Reports

Daily Weather History Graph

Daily Weather History Graph

Search for Another Location

Airport or City:

Trip Planner

Search our weather history database for the weather conditions in past years. The results will help you decide how hot, cold, wet, or windy it might be!

Date:

Astronomy

Aug. 28, 2013 Rise Set
Actual Time 6:05 AM AEST 5:32 PM AEST
Civil Twilight 5:41 AM AEST 5:55 PM AEST
Nautical Twilight 5:14 AM AEST 6:23 PM AEST
Astronomical Twilight 4:47 AM AEST 6:50 PM AEST
Moon No Moon Rise 10:37 AM AEST (8/28)
Length of Visible Light 12h 13m
Length of Day
11h 26m
Waning Gibbous, 53% of the Moon is Illuminated
Aug 28
Waning Gibbous
Aug 28
Last Quarter
Sep 5
New
Sep 13
First Quarter
Sep 19
Full

Hourly Weather History & Observations

Time (AEST) Temp. Dew Point Humidity Pressure Visibility Wind Dir Wind Speed Gust Speed Precip Events Conditions
12:00 AM 60 °F 56 °F 84% 30.15 in 19 mi North 15.7 mph - -   Partly Cloudy
12:00 AM 60.8 °F 57.2 °F 88% 30.12 in - North 8.1 mph - N/A   Clear
12:30 AM 59.0 °F 57.2 °F 94% 30.12 in - NW 5.8 mph - N/A   Clear
1:00 AM 58 °F 56 °F 90% 30.15 in - West 8.9 mph - -  
1:00 AM 59.0 °F 55.4 °F 88% 30.12 in - West 4.6 mph - N/A   Clear
1:30 AM 57.2 °F 55.4 °F 94% 30.12 in - West 4.6 mph - N/A   Clear
2:00 AM 57.2 °F 55.4 °F 94% 30.12 in 6.2 mi Calm Calm - N/A Fog Shallow Fog
2:30 AM 55.4 °F 53.6 °F 94% 30.12 in 6.2 mi Calm Calm - N/A Fog Shallow Fog
3:00 AM 54 °F 52 °F 92% 30.13 in 19 mi West 6.7 mph - -   Partly Cloudy
3:00 AM 53.6 °F 51.8 °F 94% 30.12 in - West 3.5 mph - N/A   Clear
3:30 AM 53.6 °F 53.6 °F 100% 30.12 in - West 3.5 mph - N/A   Clear
4:00 AM 53 °F 51 °F 92% 30.14 in - WNW 8.9 mph - -  
4:00 AM 53.6 °F 51.8 °F 94% 30.12 in - WNW 4.6 mph - N/A   Clear
4:30 AM 51.8 °F 51.8 °F 100% 30.12 in 6.2 mi Calm Calm - N/A Fog Shallow Fog
5:00 AM 51.8 °F 51.8 °F 100% 30.12 in 6.2 mi SW 3.5 mph - N/A Fog Shallow Fog
5:30 AM 51.8 °F 51.8 °F 100% 30.12 in 6.2 mi NW 1.2 mph - N/A Fog Shallow Fog
6:00 AM 52 °F 51 °F 95% 30.15 in 12 mi NW 1.2 mph - - Fog Patches of Fog
6:00 AM 51.8 °F 51.8 °F 100% 30.12 in 6.2 mi NW 1.2 mph - N/A Fog Shallow Fog
6:30 AM 53.6 °F 51.8 °F 94% 30.15 in 6.2 mi Calm Calm - N/A Fog Shallow Fog
6:50 AM 53.6 °F 51.8 °F 94% 30.15 in - WSW 5.8 mph - N/A   Clear
7:00 AM 55 °F 53 °F 89% 30.17 in - SW 11.2 mph - -  
7:00 AM 55.4 °F 53.6 °F 94% 30.15 in - SW 5.8 mph - N/A   Clear
7:30 AM 59.0 °F 55.4 °F 88% 30.15 in - WSW 4.6 mph - N/A   Clear
8:00 AM 62.6 °F 55.4 °F 77% 30.15 in - SW 5.8 mph - N/A   Clear
8:30 AM 66.2 °F 53.6 °F 64% 30.15 in - West 5.8 mph - N/A   Clear
9:00 AM 69 °F 53 °F 47% 30.16 in 10 mi WNW 11.2 mph - -   Haze
9:00 AM 68.0 °F 53.6 °F 60% 30.15 in - WNW 5.8 mph - N/A   Clear
9:30 AM 71.6 °F 53.6 °F 53% 30.15 in - NW 4.6 mph - N/A   Clear
10:00 AM 73 °F 50 °F 34% 30.15 in - North 11.2 mph - -  
10:00 AM 73.4 °F 50.0 °F 44% 30.12 in - North 5.8 mph - N/A   Clear
10:30 AM 73.4 °F 51.8 °F 47% 30.12 in - East 5.8 mph - N/A   Clear
11:00 AM 75.2 °F 51.8 °F 44% 30.12 in - NE 8.1 mph - N/A   Clear
11:30 AM 75.2 °F 51.8 °F 44% 30.09 in - NE 8.1 mph - N/A   Clear
12:00 PM 75 °F 53 °F 35% 30.09 in 11 mi NNE 15.7 mph - -   Haze
12:00 PM 75.2 °F 51.8 °F 44% 30.09 in 6.2 mi NNE 8.1 mph - N/A   Partly Cloudy
12:30 PM 75.2 °F 53.6 °F 47% 30.06 in 6.2 mi North 8.1 mph - N/A   Partly Cloudy
1:00 PM 75 °F 55 °F 40% 30.07 in - NNE 17.9 mph - -  
1:00 PM 75.2 °F 55.4 °F 50% 30.06 in 6.2 mi NNE 9.2 mph - N/A   Partly Cloudy
1:30 PM 75.2 °F 53.6 °F 47% 30.04 in 6.2 mi NNE 10.4 mph - N/A   Partly Cloudy
2:00 PM 75.2 °F 55.4 °F 50% 30.04 in 6.2 mi NNE 12.7 mph - N/A   Partly Cloudy
2:30 PM 75.2 °F 53.6 °F 47% 30.04 in 6.2 mi NNE 12.7 mph - N/A   Partly Cloudy
3:00 PM 74 °F 55 °F 41% 30.05 in 16 mi NE 9.2 mph - -   Haze
3:00 PM 75.2 °F 55.4 °F 50% 30.04 in 6.2 mi NE 9.2 mph - N/A   Partly Cloudy
3:30 PM 73.4 °F 53.6 °F 50% 30.04 in 6.2 mi NE 9.2 mph - N/A   Partly Cloudy
4:00 PM 72 °F 56 °F 48% 30.06 in - NNE 11.5 mph - -  
4:00 PM 71.6 °F 57.2 °F 60% 30.04 in 6.2 mi NNE 11.5 mph - N/A   Partly Cloudy
4:30 PM 71.6 °F 53.6 °F 53% 30.04 in 6.2 mi NNE 8.1 mph - N/A   Partly Cloudy
5:00 PM 69.8 °F 55.4 °F 60% 30.06 in 6.2 mi NE 8.1 mph - N/A   Partly Cloudy
5:30 PM 68.0 °F 59.0 °F 73% 30.06 in - ENE 5.8 mph - N/A   Clear
6:00 PM 64 °F 60 °F 82% 30.09 in 16 mi NNE 5.8 mph - -   Haze
6:00 PM 64.4 °F 59.0 °F 83% 30.06 in - NNE 5.8 mph - N/A   Clear
6:30 PM 66.2 °F 60.8 °F 83% 30.09 in - North 4.6 mph - N/A   Clear
7:00 PM 65 °F 61 °F 83% 30.12 in - NNW 4.5 mph - -  
7:00 PM 64.4 °F 60.8 °F 88% 30.09 in - NNW 2.3 mph - N/A   Clear
7:30 PM 64.4 °F 62.6 °F 94% 30.12 in - North 2.3 mph - N/A   Clear
8:00 PM 64.4 °F 60.8 °F 88% 30.12 in - Calm Calm - N/A   Clear
8:30 PM 64.4 °F 60.8 °F 88% 30.15 in - SSE 4.6 mph - N/A   Clear
9:00 PM 64 °F 60 °F 84% 30.16 in 19 mi SSE 4.6 mph - -   Partly Cloudy
9:00 PM 64.4 °F 60.8 °F 88% 30.15 in - SSE 4.6 mph - N/A   Clear
9:30 PM 62.6 °F 59.0 °F 88% 30.15 in - SSE 3.5 mph - N/A   Clear
10:00 PM 63 °F 57 °F 76% 30.17 in - SSE 8.9 mph - -  
10:00 PM 62.6 °F 57.2 °F 82% 30.15 in - SSE 4.6 mph - N/A   Clear
10:30 PM 64.4 °F 57.2 °F 77% 30.15 in - SSE 5.8 mph - N/A   Clear
11:00 PM 64.4 °F 55.4 °F 73% 30.18 in - SSE 5.8 mph - N/A   Clear
11:30 PM 62.6 °F 55.4 °F 77% 30.18 in 6.2 mi South 5.8 mph - N/A   Partly Cloudy